�������l�o���
Date,Time,MP-1(��Sv/h),MP-2(��Sv/h),MP-3(��Sv/h),MP-4(��Sv/h),MP-5(��Sv/h),MP-6(��Sv/h),MP-7(��Sv/h),MP-8(��Sv/h),����,����(m/s),���J
2017/07/10,00:00,1.008,1.602,1.065,1.892,1.325,0.535,0.974,0.896,�k,2.3,��
2017/07/10,00:10,1.008,1.603,1.064,1.893,1.325,0.536,0.974,0.897,�k�k��,2.6,��
2017/07/10,00:20,1.009,1.603,1.065,1.891,1.326,0.535,0.975,0.895,�k,2.0,��
2017/07/10,00:30,1.008,1.603,1.065,1.890,1.325,0.534,0.975,0.896,�k,2.5,��
2017/07/10,00:40,1.008,1.603,1.068,1.893,1.325,0.535,0.974,0.894,�k,2.6,��
2017/07/10,00:50,1.009,1.602,1.065,1.890,1.326,0.536,0.977,0.897,�k,2.6,��
2017/07/10,01:00,1.009,1.603,1.064,1.892,1.324,0.535,0.974,0.896,�k,2.3,��
2017/07/10,01:10,1.008,1.603,1.066,1.890,1.323,0.535,0.973,0.897,�k,3.2,��
2017/07/10,01:20,1.008,1.605,1.067,1.893,1.325,0.537,0.974,0.897,�k,3.4,��
2017/07/10,01:30,1.009,1.601,1.068,1.890,1.325,0.537,0.975,0.897,�k�k��,3.9,��
2017/07/10,01:40,1.008,1.601,1.064,1.891,1.326,0.537,0.972,0.896,�k�k��,3.8,��
2017/07/10,01:50,1.010,1.602,1.065,1.892,1.327,0.536,0.976,0.898,�k�k��,4.4,��
2017/07/10,02:00,1.009,1.602,1.066,1.892,1.322,0.536,0.976,0.897,�k�k��,4.1,��
2017/07/10,02:10,1.009,1.603,1.064,1.891,1.324,0.535,0.975,0.896,�k�k��,4.0,��
2017/07/10,02:20,1.009,1.601,1.066,1.895,1.326,0.536,0.975,0.896,�k�k��,4.2,��
2017/07/10,02:30,1.008,1.602,1.069,1.891,1.324,0.538,0.976,0.896,�k�k��,3.7,��
2017/07/10,02:40,1.008,1.601,1.068,1.894,1.327,0.535,0.973,0.896,�k�k��,3.4,��
2017/07/10,02:50,1.008,1.603,1.067,1.892,1.325,0.537,0.975,0.897,�k�k��,3.3,��
2017/07/10,03:00,1.008,1.602,1.068,1.894,1.325,0.536,0.974,0.896,�k�k��,3.0,��
2017/07/10,03:10,1.009,1.599,1.067,1.895,1.327,0.535,0.977,0.897,�k�k��,3.4,��
2017/07/10,03:20,1.006,1.601,1.065,1.890,1.326,0.537,0.976,0.898,�k�k��,3.1,��
2017/07/10,03:30,1.007,1.601,1.065,1.894,1.325,0.537,0.974,0.895,�k�k��,3.6,��
2017/07/10,03:40,1.008,1.600,1.067,1.892,1.324,0.538,0.974,0.897,�k�k��,2.6,��
2017/07/10,03:50,1.010,1.601,1.066,1.893,1.325,0.537,0.977,0.898,�k��,2.3,��
2017/07/10,04:00,1.007,1.602,1.066,1.891,1.324,0.538,0.976,0.899,�k��,2.3,��
2017/07/10,04:10,1.009,1.600,1.070,1.891,1.323,0.536,0.976,0.898,�k��,1.2,��
2017/07/10,04:20,1.009,1.602,1.067,1.891,1.322,0.536,0.976,0.897,�k��,0.6,��
2017/07/10,04:30,1.010,1.601,1.065,1.892,1.323,0.536,0.975,0.896,�k��,0.8,��
2017/07/10,04:40,1.008,1.601,1.066,1.892,1.325,0.538,0.974,0.897,�k��,0.8,��
2017/07/10,04:50,1.011,1.604,1.068,1.890,1.325,0.537,0.973,0.897,��쐼,0.6,��
2017/07/10,05:00,1.010,1.600,1.067,1.894,1.324,0.536,0.974,0.897,��쓌,0.8,��
2017/07/10,05:10,1.009,1.598,1.064,1.890,1.322,0.537,0.974,0.898,��쐼,0.8,��
2017/07/10,05:20,1.008,1.602,1.069,1.890,1.323,0.535,0.976,0.895,-,CALM,��
2017/07/10,05:30,1.009,1.602,1.066,1.890,1.323,0.535,0.976,0.897,�쐼,0.6,��
2017/07/10,05:40,1.008,1.599,1.065,1.888,1.322,0.536,0.976,0.898,��쐼,0.8,��
2017/07/10,05:50,1.007,1.599,1.064,1.890,1.324,0.536,0.974,0.898,-,CALM,��
2017/07/10,06:00,1.006,1.599,1.065,1.894,1.323,0.535,0.974,0.897,��쓌,0.6,��
2017/07/10,06:10,1.009,1.600,1.065,1.892,1.322,0.534,0.975,0.897,-,CALM,��
2017/07/10,06:20,1.008,1.600,1.065,1.891,1.324,0.536,0.973,0.898,-,CALM,��
2017/07/10,06:30,1.009,1.602,1.066,1.893,1.322,0.536,0.975,0.896,��쐼,0.6,��
2017/07/10,06:40,1.008,1.600,1.065,1.892,1.320,0.536,0.977,0.898,��,0.9,��
2017/07/10,06:50,1.010,1.602,1.068,1.892,1.322,0.537,0.976,0.898,��,1.2,��
2017/07/10,07:00,1.010,1.602,1.067,1.892,1.324,0.536,0.975,0.899,��,1.7,��
2017/07/10,07:10,1.008,1.601,1.067,1.894,1.323,0.536,0.977,0.898,��쓌,1.7,��
2017/07/10,07:20,1.010,1.601,1.068,1.893,1.326,0.536,0.976,0.900,��쓌,1.5,��
2017/07/10,07:30,1.010,1.604,1.066,1.895,1.322,0.536,0.975,0.900,��,1.7,��
2017/07/10,07:40,1.009,1.602,1.067,1.895,1.324,0.536,0.974,0.898,��,2.6,��
2017/07/10,07:50,1.009,1.602,1.066,1.892,1.324,0.536,0.975,0.896,��쓌,2.2,��
2017/07/10,08:00,1.008,1.604,1.067,1.893,1.323,0.535,0.973,0.897,�쓌,1.7,��
2017/07/10,08:10,1.009,1.599,1.069,1.896,1.322,0.534,0.973,0.895,���쓌,1.7,��
2017/07/10,08:20,1.005,1.601,1.067,1.893,1.324,0.537,0.973,0.893,���쓌,1.7,��
2017/07/10,08:30,1.006,1.602,1.065,1.893,1.324,0.534,0.973,0.897,���쓌,2.0,��
2017/07/10,08:40,1.007,1.602,1.067,1.894,1.327,0.535,0.974,0.896,���쓌,2.0,��
2017/07/10,08:50,1.006,1.604,1.065,1.892,1.323,0.535,0.975,0.895,���쓌,1.7,��
2017/07/10,09:00,1.008,1.603,1.063,1.896,1.323,0.535,0.975,0.896,���쓌,1.7,��
2017/07/10,09:10,1.008,1.603,1.063,1.895,1.326,0.536,0.975,0.895,���쓌,2.0,��
2017/07/10,09:20,1.008,1.604,1.062,1.894,1.325,0.535,0.974,0.897,���쓌,2.3,��
2017/07/10,09:30,1.008,1.604,1.063,1.893,1.321,0.534,0.975,0.895,���쓌,2.5,��
2017/07/10,09:40,1.007,1.601,1.064,1.895,1.328,0.535,0.975,0.894,�쓌,2.6,��
2017/07/10,09:50,1.009,1.599,1.060,1.897,1.326,0.534,0.975,0.896,�쓌,2.9,��
2017/07/10,10:00,1.008,1.604,1.059,1.898,1.327,0.535,0.972,0.893,�쓌,3.3,��
2017/07/10,10:10,1.008,1.603,1.064,1.894,1.327,0.535,0.972,0.893,�쓌,3.8,��
2017/07/10,10:20,1.008,1.602,1.061,1.895,1.328,0.536,0.976,0.895,�쓌,4.3,��
2017/07/10,10:30,1.007,1.605,1.064,1.897,1.328,0.535,0.973,0.894,�쓌,4.1,��
2017/07/10,10:40,1.008,1.605,1.065,1.896,1.329,0.535,0.974,0.896,�쓌,3.8,��
2017/07/10,10:50,1.006,1.604,1.063,1.900,1.327,0.535,0.974,0.895,��쓌,5.3,��
2017/07/10,11:00,1.010,1.603,1.065,1.896,1.328,0.538,0.975,0.896,��쓌,5.8,��
2017/07/10,11:10,1.008,1.605,1.062,1.897,1.325,0.534,0.973,0.894,��쓌,4.5,��
2017/07/10,11:20,1.009,1.608,1.065,1.893,1.328,0.535,0.975,0.895,��쓌,5.3,��
2017/07/10,11:30,1.009,1.603,1.065,1.896,1.329,0.536,0.975,0.895,��쓌,5.4,��
2017/07/10,11:40,1.010,1.607,1.065,1.892,1.326,0.536,0.975,0.894,��쓌,4.3,��
2017/07/10,11:50,1.008,1.608,1.064,1.893,1.329,0.537,0.974,0.894,��쓌,4.0,��
2017/07/10,12:00,1.010,1.606,1.065,1.891,1.330,0.536,0.973,0.894,��쓌,3.0,��
2017/07/10,12:10,1.009,1.609,1.068,1.895,1.331,0.537,0.973,0.897,��쓌,3.6,��
2017/07/10,12:20,1.008,1.611,1.067,1.897,1.331,0.535,0.974,0.895,��쓌,2.8,��
2017/07/10,12:30,1.008,1.607,1.069,1.894,1.333,0.537,0.974,0.895,��쓌,4.0,��
2017/07/10,12:40,1.010,1.611,1.067,1.897,1.328,0.536,0.973,0.897,��쓌,2.8,��
2017/07/10,12:50,1.010,1.610,1.067,1.897,1.331,0.536,0.974,0.894,�쓌,2.6,��
2017/07/10,13:00,1.010,1.606,1.067,1.898,1.331,0.535,0.972,0.896,��쓌,1.7,��
2017/07/10,13:10,1.010,1.610,1.067,1.897,1.331,0.536,0.974,0.897,��쓌,1.7,��
2017/07/10,13:20,1.008,1.609,1.067,1.898,1.334,0.535,0.976,0.896,��쓌,3.3,��
2017/07/10,13:30,1.008,1.608,1.066,1.895,1.334,0.536,0.974,0.896,��쓌,2.6,��
2017/07/10,13:40,1.010,1.612,1.061,1.897,1.335,0.535,0.975,0.895,��쓌,2.6,��
2017/07/10,13:50,1.008,1.610,1.066,1.900,1.333,0.535,0.975,0.897,��쓌,2.9,��
2017/07/10,14:00,1.008,1.609,1.068,1.902,1.335,0.535,0.975,0.896,��쓌,3.1,��
2017/07/10,14:10,1.011,1.609,1.066,1.898,1.337,0.535,0.976,0.896,��쓌,2.9,��
2017/07/10,14:20,1.010,1.612,1.069,1.899,1.334,0.536,0.975,0.895,��,3.7,��
2017/07/10,14:30,1.009,1.609,1.069,1.901,1.334,0.537,0.976,0.894,��쓌,3.0,��
2017/07/10,14:40,1.011,1.609,1.071,1.902,1.333,0.537,0.977,0.899,��쓌,4.4,��
2017/07/10,14:50,1.010,1.608,1.069,1.902,1.335,0.535,0.977,0.896,��쓌,4.7,��
2017/07/10,15:00,1.010,1.609,1.067,1.900,1.334,0.536,0.976,0.894,��쓌,5.0,��
2017/07/10,15:10,1.011,1.609,1.070,1.902,1.334,0.537,0.976,0.894,��쓌,5.7,��
2017/07/10,15:20,1.011,1.610,1.066,1.900,1.335,0.537,0.976,0.896,��쓌,6.1,��
2017/07/10,15:30,1.011,1.609,1.070,1.902,1.336,0.537,0.977,0.896,��,5.5,��
2017/07/10,15:40,1.011,1.609,1.069,1.902,1.337,0.536,0.979,0.897,��,8.1,��
2017/07/10,15:50,1.009,1.612,1.071,1.903,1.336,0.538,0.977,0.898,��,7.1,��
2017/07/10,16:00,1.012,1.611,1.070,1.902,1.338,0.539,0.975,0.897,��,7.0,��
2017/07/10,16:10,1.012,1.611,1.071,1.904,1.337,0.538,0.976,0.897,��,5.9,��
2017/07/10,16:20,1.012,1.609,1.068,1.903,1.339,0.537,0.977,0.897,��,6.3,��
2017/07/10,16:30,1.013,1.611,1.071,1.902,1.338,0.537,0.979,0.896,��,5.9,��
2017/07/10,16:40,1.012,1.608,1.070,1.903,1.338,0.537,0.976,0.898,��,5.8,��
2017/07/10,16:50,1.012,1.611,1.072,1.901,1.339,0.539,0.977,0.897,��,4.5,��
2017/07/10,17:00,1.011,1.612,1.074,1.903,1.339,0.539,0.977,0.896,��,5.5,��
2017/07/10,17:10,1.014,1.612,1.075,1.904,1.337,0.540,0.976,0.896,��,7.0,��
2017/07/10,17:20,1.014,1.611,1.075,1.901,1.337,0.537,0.978,0.897,��,5.6,��
2017/07/10,17:30,1.013,1.610,1.073,1.903,1.339,0.537,0.976,0.898,��,5.3,��
2017/07/10,17:40,1.012,1.612,1.073,1.904,1.337,0.537,0.979,0.899,��,4.6,��
2017/07/10,17:50,1.015,1.611,1.074,1.907,1.337,0.537,0.976,0.897,��,5.0,��
2017/07/10,18:00,1.016,1.611,1.075,1.903,1.337,0.539,0.975,0.898,��쐼,4.0,��
2017/07/10,18:10,1.016,1.613,1.074,1.903,1.338,0.537,0.975,0.900,��,4.9,��
2017/07/10,18:20,1.016,1.612,1.075,1.906,1.335,0.539,0.978,0.899,��,4.5,��
2017/07/10,18:30,1.012,1.609,1.073,1.907,1.337,0.537,0.977,0.897,��,5.0,��
2017/07/10,18:40,1.014,1.612,1.073,1.904,1.334,0.536,0.975,0.898,��,5.2,��
2017/07/10,18:50,1.014,1.614,1.075,1.903,1.336,0.535,0.975,0.899,��,5.7,��
2017/07/10,19:00,1.013,1.613,1.074,1.907,1.336,0.538,0.976,0.900,��쐼,4.3,��
2017/07/10,19:10,1.013,1.614,1.072,1.906,1.338,0.535,0.975,0.899,��쐼,4.5,��
2017/07/10,19:20,1.014,1.612,1.075,1.903,1.337,0.537,0.978,0.899,��쐼,4.7,��
2017/07/10,19:30,1.015,1.612,1.074,1.902,1.339,0.537,0.977,0.897,��,4.8,��
2017/07/10,19:40,1.014,1.614,1.074,1.901,1.338,0.535,0.977,0.898,��,5.7,��
2017/07/10,19:50,1.015,1.613,1.074,1.902,1.336,0.537,0.977,0.899,��,5.3,��
2017/07/10,20:00,1.013,1.612,1.073,1.900,1.337,0.537,0.978,0.899,��쐼,4.2,��
2017/07/10,20:10,1.013,1.612,1.073,1.901,1.335,0.537,0.975,0.901,��쐼,3.2,��
2017/07/10,20:20,1.012,1.611,1.074,1.904,1.335,0.536,0.975,0.898,��쐼,3.1,��
2017/07/10,20:30,1.014,1.614,1.074,1.902,1.335,0.537,0.975,0.899,��쐼,3.6,��
2017/07/10,20:40,1.012,1.613,1.073,1.901,1.334,0.536,0.976,0.898,��쐼,4.2,��
2017/07/10,20:50,1.015,1.612,1.074,1.903,1.335,0.536,0.979,0.897,��쐼,4.6,��
2017/07/10,21:00,1.014,1.612,1.074,1.904,1.335,0.537,0.977,0.898,��쐼,3.7,��
2017/07/10,21:10,1.013,1.611,1.073,1.903,1.334,0.537,0.976,0.898,��쐼,2.0,��
2017/07/10,21:20,1.013,1.612,1.074,1.902,1.336,0.539,0.977,0.899,��쐼,0.9,��
2017/07/10,21:30,1.013,1.612,1.074,1.904,1.335,0.538,0.974,0.898,�k��,1.5,��
2017/07/10,21:40,1.011,1.613,1.073,1.904,1.335,0.535,0.977,0.898,�k�k��,2.0,��
2017/07/10,21:50,1.012,1.609,1.074,1.906,1.336,0.536,0.977,0.900,�k�k��,1.4,��
2017/07/10,22:00,1.012,1.612,1.074,1.907,1.337,0.535,0.975,0.896,�k,2.3,��
2017/07/10,22:10,1.010,1.610,1.073,1.905,1.334,0.536,0.977,0.898,�k,1.5,��
2017/07/10,22:20,1.011,1.610,1.074,1.904,1.337,0.535,0.975,0.898,-,CALM,��
2017/07/10,22:30,1.010,1.611,1.071,1.899,1.335,0.536,0.977,0.897,�k�k��,1.2,��
2017/07/10,22:40,1.011,1.607,1.071,1.901,1.335,0.535,0.976,0.898,�k�k��,1.7,��
2017/07/10,22:50,1.011,1.611,1.072,1.901,1.333,0.535,0.976,0.897,�k�k��,1.9,��
2017/07/10,23:00,1.010,1.611,1.072,1.906,1.334,0.536,0.976,0.898,�k�k��,1.5,��
2017/07/10,23:10,1.010,1.611,1.073,1.901,1.336,0.535,0.977,0.898,���k��,1.4,��
2017/07/10,23:20,1.009,1.609,1.071,1.902,1.334,0.534,0.974,0.898,���k��,1.2,��
2017/07/10,23:30,1.010,1.607,1.071,1.902,1.331,0.534,0.974,0.899,�쓌,0.9,��
2017/07/10,23:40,1.009,1.606,1.074,1.902,1.331,0.534,0.976,0.897,��,0.9,��
2017/07/10,23:50,1.009,1.610,1.072,1.900,1.334,0.534,0.974,0.896,��,0.9,��
